EW8718 Weather Reports


Display with metric or nautical units.
time (UTC)temp
F
wind
direction
speed
MPH
gust
MPH
rain 1hr
in
rain 24hr
in
rain mn
in
humidity
%
barometer
mb
20260502130110 65 22 0.0 0.0 0.00 0.00 0.00 66 1008.0
20260502123057 0 0.0 0.0 0.00 0.00 0.00 1007.5
20260502121542 0 0.0 0.0 0.00 0.00 0.00 1007.2
20260502114530 0 0.0 0.0 0.00 0.00 0.00 1006.9
20260502113127 65 57 0.0 0.0 0.00 0.00 0.00 67 1006.8
20260502111521 65 57 0.0 0.0 0.00 0.00 0.00 67 1006.4
20260502110023 65 57 0.0 0.0 0.00 0.00 0.00 66 1006.2
20260502104518 65 57 0.0 0.0 0.00 0.00 0.00 66 1006.0
20260502103014 65 57 0.0 0.0 0.00 0.00 0.00 66 1005.9
20260502101512 65 57 0.0 0.0 0.00 0.00 0.00 66 1005.7
20260502091501 66 77 1.0 0.0 0.00 0.00 0.00 65 1004.9
20260502071512 69 50 1.0 0.0 0.00 0.00 0.00 62 1004.1
20260502070009 69 49 1.0 0.0 0.00 0.00 0.00 61 1003.7
20260502064516 69 79 1.0 0.0 0.00 0.00 0.00 61 1003.6
20260502063008 70 34 1.0 0.0 0.00 0.00 0.00 61 1003.5
20260502061502 70 91 3.0 0.0 0.00 0.00 0.00 61 1003.2
20260502060028 71 49 5.0 0.0 0.00 0.00 0.00 60 1003.0
20260502054524 72 84 4.0 0.0 0.00 0.00 0.00 57 1002.6
20260502051513 74 5 4.0 0.0 0.00 0.00 0.00 53 1001.6
20260502050009 74 79 7.0 0.0 0.00 0.00 0.00 51 1000.9
20260502044505 75 60 5.0 0.0 0.00 0.00 0.00 50 1000.5
20260502043031 77 80 8.0 0.0 0.00 0.00 0.00 47 1000.1
20260502041529 78 82 5.0 0.0 0.00 0.00 0.00 44 999.8
20260502040020 80 59 6.0 0.0 0.00 0.00 0.00 37 999.3
20260502034516 82 46 4.0 0.0 0.00 0.00 0.00 25 998.9
20260502033013 83 34 0.0 0.0 0.00 0.00 0.00 18 998.3
20260502031509 83 34 1.0 0.0 0.00 0.00 0.00 18 997.9
20260502030040 83 34 0.0 0.0 0.00 0.00 0.00 18 997.7
20260502024533 84 34 0.0 0.0 0.00 0.00 0.00 18 997.2
20260502023033 85 34 0.0 0.0 0.00 0.00 0.00 17 996.7
20260502021528 86 34 0.0 0.0 0.00 0.00 0.00 17 996.4
20260502020025 87 34 2.0 0.0 0.00 0.00 0.00 16 996.0
20260502014515 88 34 2.0 0.0 0.00 0.00 0.00 16 995.7
20260502013009 89 34 2.0 0.0 0.00 0.00 0.00 15 995.5
20260502011505 90 34 4.0 0.0 0.00 0.00 0.00 15 995.1
20260502010002 91 34 5.0 0.0 0.00 0.00 0.00 14 994.9
20260502004603 92 34 5.0 0.0 0.00 0.00 0.00 14 994.7
20260502003054 94 32 4.0 0.0 0.00 0.00 0.00 14 994.6
20260502001554 94 31 2.0 0.0 0.00 0.00 0.00 13 994.4
20260502000100 93 31 5.0 0.0 0.00 0.00 0.00 14 994.2
20260501234553 94 32 2.0 0.0 0.00 0.00 0.00 13 994.2
20260501233050 94 32 3.0 0.0 0.00 0.00 0.00 14 994.2
20260501231600 93 32 4.0 0.0 0.00 0.00 0.00 14 994.2
20260501230056 94 34 5.0 0.0 0.00 0.00 0.00 14 994.4
20260501224557 94 36 4.0 0.0 0.00 0.00 0.00 14 994.4
20260501223046 93 36 4.0 0.0 0.00 0.00 0.00 14 994.6
20260501221553 93 22 3.0 0.0 0.00 0.00 0.00 15 994.7
20260501220037 93 5 4.0 0.0 0.00 0.00 0.00 16 994.9
20260501214536 94 349 3.0 0.0 0.00 0.00 0.00 16 995.0
20260501213033 94 341 4.0 0.0 0.00 0.00 0.00 16 995.3
20260501211532 93 323 1.0 0.0 0.00 0.00 0.00 16 995.7
20260501210031 93 323 3.0 0.0 0.00 0.00 0.00 16 996.0
20260501204532 93 313 3.0 0.0 0.00 0.00 0.00 15 996.1
20260501203100 94 302 2.0 0.0 0.00 0.00 0.00 16 996.6
20260501201607 93 275 1.0 0.0 0.00 0.00 0.00 17 996.9
20260501200058 92 275 2.0 0.0 0.00 0.00 0.00 17 997.3
20260501194607 90 275 3.0 0.0 0.00 0.00 0.00 18 997.6
20260501193056 92 295 0.0 0.0 0.00 0.00 0.00 18 997.9
20260501191558 88 295 2.0 0.0 0.00 0.00 0.00 20 998.2
20260501190057 89 320 2.0 0.0 0.00 0.00 0.00 20 998.4
20260501184552 88 320 4.0 0.0 0.00 0.00 0.00 21 998.7
20260501183053 88 320 1.0 0.0 0.00 0.00 0.00 22 999.0
20260501181550 87 320 4.0 0.0 0.00 0.00 0.00 23 999.3
20260501180049 88 320 2.0 0.0 0.00 0.00 0.00 25 999.6
20260501174548 87 320 2.0 0.0 0.00 0.00 0.00 24 999.7
20260501173045 86 320 2.0 0.0 0.00 0.00 0.00 28 1000.1
20260501171543 85 320 1.0 0.0 0.00 0.00 0.00 30 1000.2
20260501170042 84 320 1.0 0.0 0.00 0.00 0.00 32 1000.3
20260501164539 83 320 3.0 0.0 0.00 0.00 0.00 34 1000.5
20260501163044 83 320 1.0 0.0 0.00 0.00 0.00 36 1000.5
20260501161544 81 320 2.0 0.0 0.00 0.00 0.00 39 1000.6
20260501160036 80 320 2.0 0.0 0.00 0.00 0.00 40 1000.7
20260501154535 79 320 2.0 0.0 0.00 0.00 0.00 43 1000.7
20260501153033 78 320 3.0 0.0 0.00 0.00 0.00 45 1000.8
20260501151535 77 320 2.0 0.0 0.00 0.00 0.00 48 1000.7
20260501150031 77 320 3.0 0.0 0.00 0.00 0.00 50 1000.6